Weather History for Panama City, FL

Change the Weather History Date:

Monday, November 4, 2013

  Actual Average Record
Temperature  
Mean Temperature 62 °F -  
Max Temperature 77 °F - 80 °F (2012)
Min Temperature 47 °F - 43 °F (2011)
Degree Days  
Heating Degree Days 3    
Cooling Degree Days 0    
Growing Degree Days 10 (Base 50)    
Moisture  
Dew Point 50 °F    
Average Humidity 68    
Maximum Humidity 93    
Minimum Humidity 43    
Precipitation  
Precipitation 0.00 in - 0.08 in (2010)
Sea Level Pressure  
Sea Level Pressure 30.26 in    
Wind  
Wind Speed 7 mph (NE)    
Max Wind Speed 18 mph    
Max Gust Speed 22 mph    
Visibility 10 miles    
Events      
T = Trace of Precipitation, MM = Missing Value Source: NWS Daily Summary

Daily Weather History Graph

Daily Weather History Graph

Search for Another Location

Airport:

Trip Planner

Search our weather history database for the weather conditions in past years. The results will help you decide how hot, cold, wet, or windy it might be!

Date:

Astronomy

Nov. 04, 2013 Rise Set
Actual Time 7:00 AM EST 5:53 PM EST
Civil Twilight 6:35 AM EST 6:17 PM EST
Nautical Twilight 6:06 AM EST 6:46 PM EST
Astronomical Twilight 5:38 AM EST 7:14 PM EST
Moon 8:05 AM EST (11/4) 7:02 PM EST (11/4)
Length of Visible Light 11h 42m
Length of Day
10h 52m
New Moon, 2% of the Moon is Illuminated
Nov 4
New Moon
Nov 10
First Quarter
Nov 17
Full
Nov 25
Last Quarter
Dec 2
New

Hourly Weather History & Observations

Time (EST) Temp. Dew Point Humidity Pressure Visibility Wind Dir Wind Speed Gust Speed Precip Events Conditions
12:53 AM 50.0 °F 45.0 °F 83% 30.25 in 10.0 mi NE 5.8 mph - N/A   Clear
1:53 AM 51.1 °F 45.0 °F 80% 30.25 in 10.0 mi NE 6.9 mph - N/A   Clear
2:53 AM 48.0 °F 44.1 °F 86% 30.25 in 10.0 mi NE 5.8 mph - N/A   Clear
3:53 AM 48.0 °F 44.1 °F 86% 30.25 in 10.0 mi ENE 3.5 mph - N/A   Clear
4:53 AM 48.0 °F 44.1 °F 86% 30.26 in 10.0 mi Calm Calm - N/A   Clear
5:53 AM 46.9 °F 44.1 °F 90% 30.25 in 10.0 mi NNE 5.8 mph - N/A   Clear
6:53 AM 48.9 °F 44.1 °F 83% 30.25 in 10.0 mi NE 6.9 mph - N/A   Clear
7:53 AM 53.1 °F 44.1 °F 71% 30.26 in 10.0 mi NE 9.2 mph - N/A   Clear
8:53 AM 57.9 °F 46.0 °F 65% 30.27 in 10.0 mi NE 11.5 mph 19.6 mph N/A   Clear
9:53 AM 63.0 °F 46.9 °F 56% 30.28 in 10.0 mi ENE 13.8 mph 19.6 mph N/A   Clear
10:53 AM 66.9 °F 48.9 °F 52% 30.29 in 10.0 mi ENE 9.2 mph 21.9 mph N/A   Clear
11:53 AM 71.1 °F 51.1 °F 49% 30.28 in 10.0 mi East 10.4 mph 18.4 mph N/A   Clear
12:53 PM 73.9 °F 52.0 °F 46% 30.28 in 10.0 mi NE 8.1 mph - N/A   Clear
1:53 PM 75.0 °F 51.1 °F 43% 30.26 in 10.0 mi NNE 10.4 mph - N/A   Clear
2:53 PM 75.9 °F 52.0 °F 43% 30.25 in 10.0 mi NE 8.1 mph 20.7 mph N/A   Clear
3:53 PM 75.0 °F 52.0 °F 44% 30.23 in 10.0 mi NE 10.4 mph - N/A   Clear
4:53 PM 73.0 °F 53.1 °F 49% 30.25 in 10.0 mi NE 8.1 mph 17.3 mph N/A   Partly Cloudy
5:53 PM 66.9 °F 55.0 °F 66% 30.25 in 10.0 mi NNE 4.6 mph - N/A   Partly Cloudy
6:53 PM 63.0 °F 55.9 °F 78% 30.27 in 10.0 mi NNE 5.8 mph - N/A   Clear
7:53 PM 60.1 °F 55.9 °F 86% 30.28 in 10.0 mi NNE 5.8 mph - N/A   Clear
8:53 PM 63.0 °F 55.0 °F 75% 30.28 in 10.0 mi NE 10.4 mph - N/A   Clear
9:53 PM 63.0 °F 55.0 °F 75% 30.28 in 10.0 mi NNE 9.2 mph - N/A   Clear
10:53 PM 62.1 °F 54.0 °F 75% 30.28 in 10.0 mi NE 9.2 mph - N/A   Clear
11:53 PM 61.0 °F 54.0 °F 78% 30.28 in 10.0 mi NE 11.5 mph 19.6 mph N/A   Clear